星链-2001 (STARLINK-2001 )

导读 | 豆包AI

STARLINK-2001是美国太空探索技术公司SpaceX星链星座的卫星,于2021年2月4日发射。它属于星链互联网卫星组网的组成部分,运行在近地轨道,旨在为全球提供高速低延迟的宽带互联网服务,支撑星链系统覆盖全球偏远区域与高密度用户场景,是星链星座规模化部署过程中的一颗组网卫星。

基本信息
目录编号:
47596
目录名称:
STARLINK-2001
国际标识:
2021-009BA
轨道中心:
EARTH
卫星名称:
星链-2001
卫星全名:
星链-2001 (STARLINK-2001 )
卫星状态:
在轨 (已飞行1864 天)
发射日期:
2021-02-04 UTC
国别 :
美国 (US)
星等 :
--
轨道信息
数据来源 国际轨道数据
星历时间: 2026-03-14T03:10:06+0800
15小时前
查看轨道信息
半长轴: 6789.372km
偏心率: 0.0005219
轨道倾角: 53.050°
近地点辐角 129.878°
升交点赤经 1.812°
平近点角 230.269°
近地点: 407.691km
远地点: 414.779km
周期: 92.791分钟
每日圈数: 15.518811
详细信息
固有亮度:
5
最大亮度:
2.5
卫星平台:
Starlink V1.0
覆盖范围:
全球
运营商:
太空探索技术公司
运营商所在国:
美国
制造商(研发单位):
太空探索技术公司
制造商所在国:
美国
使用方式:
暂无
卫星简介
星链(Starlink)计划是由太空探索技术公司(SpaceX)提出的一个巨型低轨卫星互联网星座项目,计划在2019年至2024年间在太空搭建由约1.2万颗卫星组成的“星链”网络,其中1584颗将部署在地球上空550千米处的近地轨道,并从2020年开始工作。该卫星仍在工作。
2D轨道图
3D轨道图
轨道高度分析图
轨道倾角分析图
轨道综合分析图
查看轨道综合分析图